Time,TemperatureF,DewpointF,PressureIn,WindDirection,WindDirectionDegrees,WindSpeedMPH,WindSpeedGustMPH,Humidity,HourlyPrecipIn,Conditions,Clouds,dailyrainin,SoftwareType,DateUTC
2013-01-28 00:02:00,32.0,26.2,30.43,SW,231,0.0,0.0,79,0.00,OVC,,0.00,WeatherDisplay:10.37,2013-01-28 05:02:00,
2013-01-28 00:05:00,32.0,26.2,30.42,SW,231,0.0,0.0,79,0.00,OVC,,0.00,WeatherDisplay:10.37,2013-01-28 05:05:00,
2013-01-28 00:07:00,32.0,26.2,30.42,SW,231,0.0,0.0,79,0.00,OVC,,0.00,WeatherDisplay:10.37,2013-01-28 05:07:00,
2013-01-28 00:12:00,32.0,26.2,30.42,SW,231,0.0,0.0,79,0.00,OVC,,0.00,WeatherDisplay:10.37,2013-01-28 05:12:00,
2013-01-28 00:15:00,32.0,26.2,30.42,SW,231,0.0,0.0,79,0.00,OVC,,0.00,WeatherDisplay:10.37,2013-01-28 05:15:00,
2013-01-28 00:21:00,32.1,26.6,30.42,SW,231,0.0,0.0,80,0.00,OVC,,0.00,WeatherDisplay:10.37,2013-01-28 05:21:00,
2013-01-28 00:26:00,32.2,26.4,30.42,SW,231,0.0,0.0,79,0.00,OVC,,0.00,WeatherDisplay:10.37,2013-01-28 05:26:00,
2013-01-28 00:31:00,32.2,26.7,30.43,SW,231,0.0,0.0,80,0.00,OVC,,0.00,WeatherDisplay:10.37,2013-01-28 05:31:00,
2013-01-28 00:36:00,32.3,26.8,30.42,SW,231,0.0,0.0,80,0.00,OVC,,0.00,WeatherDisplay:10.37,2013-01-28 05:36:00,
2013-01-28 00:42:00,32.3,26.5,30.42,SW,231,0.0,0.0,79,0.00,OVC,,0.00,WeatherDisplay:10.37,2013-01-28 05:42:00,
2013-01-28 00:47:00,32.3,26.5,30.42,SW,231,0.0,0.0,79,0.00,OVC,,0.00,WeatherDisplay:10.37,2013-01-28 05:47:00,
2013-01-28 00:52:00,32.3,26.8,30.42,SW,231,0.0,0.0,80,0.00,OVC,,0.00,WeatherDisplay:10.37,2013-01-28 05:52:00,
2013-01-28 00:58:00,32.3,27.1,30.42,SW,231,0.0,0.0,81,0.00,OVC,,0.00,WeatherDisplay:10.37,2013-01-28 05:58:00,
2013-01-28 01:03:00,32.1,27.2,30.42,SW,231,0.0,0.0,82,0.00,OVC,,0.00,WeatherDisplay:10.37,2013-01-28 06:03:00,
2013-01-28 01:09:00,32.0,27.1,30.41,SW,231,0.0,0.0,82,0.00,OVC,,0.00,WeatherDisplay:10.37,2013-01-28 06:09:00,
2013-01-28 01:14:00,31.8,27.8,30.41,SW,231,0.0,0.0,85,0.01,RA,,0.01,WeatherDisplay:10.37,2013-01-28 06:14:00,
2013-01-28 01:19:00,31.8,28.1,30.41,SW,231,0.0,0.0,86,0.01,RA,,0.01,WeatherDisplay:10.37,2013-01-28 06:19:00,
2013-01-28 01:24:00,31.7,28.3,30.41,SW,231,0.0,0.0,87,0.00,RA,,0.01,WeatherDisplay:10.37,2013-01-28 06:24:00,
2013-01-28 01:29:00,31.8,28.7,30.41,SW,231,0.0,0.0,88,0.01,RA,,0.01,WeatherDisplay:10.37,2013-01-28 06:29:00,
2013-01-28 01:34:00,31.8,28.7,30.41,SW,231,0.0,0.0,88,0.01,RA,,0.01,WeatherDisplay:10.37,2013-01-28 06:34:00,
2013-01-28 01:39:00,31.8,28.9,30.41,SW,231,0.0,0.0,89,0.01,RA,,0.01,WeatherDisplay:10.37,2013-01-28 06:39:00,
2013-01-28 01:44:00,31.8,29.2,30.41,SW,231,0.0,0.0,90,0.00,OVC,,0.01,WeatherDisplay:10.37,2013-01-28 06:44:00,
2013-01-28 01:49:00,31.7,29.1,30.41,SW,231,0.0,0.0,90,0.02,RA,,0.02,WeatherDisplay:10.37,2013-01-28 06:49:00,
2013-01-28 01:54:00,31.7,29.1,30.41,SW,231,0.0,0.0,90,0.02,RA,,0.02,WeatherDisplay:10.37,2013-01-28 06:54:00,
2013-01-28 01:59:00,31.7,29.1,30.41,SW,231,0.0,0.0,90,0.02,RA,,0.02,WeatherDisplay:10.37,2013-01-28 06:59:00,
2013-01-28 02:04:00,31.7,29.1,30.41,SW,231,0.0,0.0,90,0.02,RA,,0.02,WeatherDisplay:10.37,2013-01-28 07:04:00,
2013-01-28 02:09:00,31.6,29.0,30.41,SW,231,0.0,0.0,90,0.02,-RA,,0.02,WeatherDisplay:10.37,2013-01-28 07:09:00,
2013-01-28 02:14:00,31.6,29.0,30.41,SW,231,0.0,0.0,90,0.01,-RA,,0.02,WeatherDisplay:10.37,2013-01-28 07:14:00,
2013-01-28 02:19:00,31.5,28.9,30.40,SW,231,0.0,0.0,90,0.01,-RA,,0.02,WeatherDisplay:10.37,2013-01-28 07:19:00,
2013-01-28 02:25:00,31.5,28.9,30.40,SW,231,0.0,0.0,90,0.01,-RA,,0.02,WeatherDisplay:10.37,2013-01-28 07:25:00,
2013-01-28 02:31:00,31.6,29.0,30.41,SW,231,0.0,0.0,90,0.01,-RA,,0.02,WeatherDisplay:10.37,2013-01-28 07:31:00,
2013-01-28 02:36:00,31.7,29.4,30.40,SW,231,0.0,0.0,91,0.01,-RA,,0.02,WeatherDisplay:10.37,2013-01-28 07:36:00,
2013-01-28 02:41:00,31.8,29.7,30.40,SW,231,0.0,0.0,92,0.01,-RA,,0.02,WeatherDisplay:10.37,2013-01-28 07:41:00,
2013-01-28 02:46:00,31.8,29.5,30.40,SW,231,0.0,0.0,91,0.02,-RA,,0.03,WeatherDisplay:10.37,2013-01-28 07:46:00,
2013-01-28 02:52:00,31.7,29.4,30.40,SW,231,0.0,0.0,91,0.01,-RA,,0.03,WeatherDisplay:10.37,2013-01-28 07:52:00,
2013-01-28 02:57:00,31.7,29.4,30.40,SW,231,0.0,0.0,91,0.02,-RA,,0.04,WeatherDisplay:10.37,2013-01-28 07:57:00,
2013-01-28 03:02:00,31.6,29.3,30.40,SW,231,0.0,0.0,91,0.02,RA,,0.04,WeatherDisplay:10.37,2013-01-28 08:02:00,
2013-01-28 03:07:00,31.5,29.2,30.39,SW,231,0.0,0.0,91,0.02,RA,,0.04,WeatherDisplay:10.37,2013-01-28 08:07:00,
2013-01-28 03:12:00,31.5,29.4,30.39,SW,231,0.0,0.0,92,0.02,RA,,0.04,WeatherDisplay:10.37,2013-01-28 08:12:00,
2013-01-28 03:17:00,31.4,29.3,30.40,SW,231,0.0,0.0,92,0.02,RA,,0.04,WeatherDisplay:10.37,2013-01-28 08:17:00,
2013-01-28 03:22:00,31.5,29.7,30.39,SW,231,0.0,0.0,93,0.02,RA,,0.04,WeatherDisplay:10.37,2013-01-28 08:22:00,
2013-01-28 03:27:00,31.6,29.5,30.39,SW,231,0.0,0.0,92,0.03,RA,,0.05,WeatherDisplay:10.37,2013-01-28 08:27:00,
2013-01-28 03:32:00,31.5,29.4,30.38,SW,231,0.0,0.0,92,0.03,RA,,0.05,WeatherDisplay:10.37,2013-01-28 08:32:00,
2013-01-28 03:37:00,31.6,29.8,30.38,SW,231,0.0,0.0,93,0.03,RA,,0.05,WeatherDisplay:10.37,2013-01-28 08:37:00,
2013-01-28 03:42:00,31.6,29.8,30.38,SW,231,0.0,0.0,93,0.03,RA,,0.05,WeatherDisplay:10.37,2013-01-28 08:42:00,
2013-01-28 03:47:00,31.6,29.8,30.38,SW,231,0.0,0.0,93,0.02,RA,,0.05,WeatherDisplay:10.37,2013-01-28 08:47:00,
2013-01-28 03:52:00,31.6,29.8,30.38,SW,235,0.0,0.0,93,0.02,RA,,0.05,WeatherDisplay:10.37,2013-01-28 08:52:00,
2013-01-28 03:57:00,31.5,29.7,30.38,SW,235,0.0,0.0,93,0.01,OVC,,0.05,WeatherDisplay:10.37,2013-01-28 08:57:00,
2013-01-28 04:02:00,31.5,29.7,30.38,SW,234,0.0,1.1,93,0.01,OVC,,0.05,WeatherDisplay:10.37,2013-01-28 09:02:00,
2013-01-28 04:07:00,31.6,30.1,30.38,SW,234,0.0,0.0,94,0.01,OVC,,0.05,WeatherDisplay:10.37,2013-01-28 09:07:00,
2013-01-28 04:13:00,31.5,30.0,30.38,SW,234,0.0,0.0,94,0.01,OVC,,0.05,WeatherDisplay:10.37,2013-01-28 09:13:00,
2013-01-28 04:18:00,31.6,30.1,30.37,SW,235,0.0,0.0,94,0.01,OVC,,0.05,WeatherDisplay:10.37,2013-01-28 09:18:00,
2013-01-28 04:23:00,31.8,30.3,30.37,SW,235,0.1,1.1,94,0.01,OVC,,0.05,WeatherDisplay:10.37,2013-01-28 09:23:00,
2013-01-28 04:28:00,31.6,30.1,30.38,WSW,257,0.0,0.0,94,0.00,OVC,,0.05,WeatherDisplay:10.37,2013-01-28 09:28:00,
2013-01-28 04:33:00,31.5,30.0,30.38,WSW,257,0.0,0.0,94,0.00,OVC,,0.05,WeatherDisplay:10.37,2013-01-28 09:33:00,
2013-01-28 04:38:00,31.6,30.1,30.38,WSW,257,0.0,0.0,94,0.00,OVC,,0.05,WeatherDisplay:10.37,2013-01-28 09:38:00,
2013-01-28 04:43:00,31.6,30.1,30.38,WSW,258,0.0,0.0,94,0.00,OVC,,0.05,WeatherDisplay:10.37,2013-01-28 09:43:00,
2013-01-28 04:48:00,31.6,30.1,30.37,WSW,257,0.0,0.0,94,0.00,OVC,,0.05,WeatherDisplay:10.37,2013-01-28 09:48:00,
2013-01-28 04:53:00,31.6,30.1,30.37,WSW,257,0.0,0.0,94,0.00,OVC,,0.05,WeatherDisplay:10.37,2013-01-28 09:53:00,
2013-01-28 04:58:00,31.6,30.1,30.37,WSW,257,0.0,0.0,94,0.00,OVC,,0.05,WeatherDisplay:10.37,2013-01-28 09:58:00,
2013-01-28 05:03:00,31.6,30.1,30.37,WSW,257,0.0,0.0,94,0.00,OVC,,0.05,WeatherDisplay:10.37,2013-01-28 10:03:00,
2013-01-28 05:08:00,31.7,30.2,30.37,WSW,257,0.0,0.0,94,0.00,OVC,,0.05,WeatherDisplay:10.37,2013-01-28 10:08:00,
2013-01-28 05:13:00,31.7,30.2,30.37,WSW,257,0.0,0.0,94,0.01,RA,,0.06,WeatherDisplay:10.37,2013-01-28 10:13:00,
2013-01-28 05:18:00,31.7,30.2,30.37,WSW,257,0.0,0.0,94,0.01,-RA,,0.06,WeatherDisplay:10.37,2013-01-28 10:18:00,
2013-01-28 05:23:00,31.6,30.1,30.37,WSW,257,0.0,0.0,94,0.01,-RA,,0.06,WeatherDisplay:10.37,2013-01-28 10:23:00,
2013-01-28 05:28:00,31.6,30.1,30.37,WSW,257,0.0,0.0,94,0.01,-RA,,0.06,WeatherDisplay:10.37,2013-01-28 10:28:00,
2013-01-28 05:33:00,31.6,30.1,30.37,WSW,257,0.0,0.0,94,0.01,-RA,,0.07,WeatherDisplay:10.37,2013-01-28 10:33:00,
2013-01-28 05:38:00,31.7,30.2,30.37,WSW,258,0.0,0.0,94,0.02,-RA,,0.07,WeatherDisplay:10.37,2013-01-28 10:38:00,
2013-01-28 05:43:00,31.6,30.1,30.37,West,261,0.0,0.0,94,0.02,-RA,,0.07,WeatherDisplay:10.37,2013-01-28 10:43:00,
2013-01-28 05:48:00,31.7,30.2,30.37,West,262,0.0,0.0,94,0.02,-RA,,0.07,WeatherDisplay:10.37,2013-01-28 10:48:00,
2013-01-28 05:53:00,31.7,30.2,30.37,West,259,0.1,1.1,94,0.02,-RA,,0.07,WeatherDisplay:10.37,2013-01-28 10:53:00,
2013-01-28 05:58:00,31.7,30.2,30.37,West,259,0.0,0.0,94,0.02,-RA,,0.07,WeatherDisplay:10.37,2013-01-28 10:58:00,
2013-01-28 06:03:00,31.7,30.2,30.37,West,260,0.0,1.1,94,0.02,-RA,,0.07,WeatherDisplay:10.37,2013-01-28 11:03:00,
2013-01-28 06:08:00,31.8,30.5,30.37,West,260,0.0,0.0,95,0.02,-RA,,0.07,WeatherDisplay:10.37,2013-01-28 11:08:00,
2013-01-28 06:14:00,31.7,30.2,30.37,West,260,0.0,0.0,94,0.00,-RA,,0.07,WeatherDisplay:10.37,2013-01-28 11:14:00,
2013-01-28 06:19:00,31.8,30.5,30.37,West,260,0.0,0.0,95,0.00,-RA,,0.07,WeatherDisplay:10.37,2013-01-28 11:19:00,
2013-01-28 06:24:00,31.8,30.5,30.37,West,260,0.0,0.0,95,0.00,-RA,,0.07,WeatherDisplay:10.37,2013-01-28 11:24:00,
2013-01-28 06:29:00,31.8,30.5,30.37,West,260,0.0,0.0,95,0.00,-RA,,0.07,WeatherDisplay:10.37,2013-01-28 11:29:00,
2013-01-28 06:34:00,31.8,30.5,30.37,West,260,0.0,0.0,95,0.00,-RA,,0.07,WeatherDisplay:10.37,2013-01-28 11:34:00,
2013-01-28 06:39:00,31.8,30.5,30.38,West,260,0.0,0.0,95,0.00,-RA,,0.07,WeatherDisplay:10.37,2013-01-28 11:39:00,
2013-01-28 06:44:00,31.9,30.6,30.38,West,260,0.0,0.0,95,0.00,-RA,,0.07,WeatherDisplay:10.37,2013-01-28 11:44:00,
2013-01-28 06:49:00,31.9,30.6,30.38,West,260,0.0,0.0,95,0.00,-RA,,0.07,WeatherDisplay:10.37,2013-01-28 11:49:00,
2013-01-28 06:55:00,31.9,30.6,30.38,West,260,0.0,0.0,95,0.00,-RA,,0.07,WeatherDisplay:10.37,2013-01-28 11:55:00,
2013-01-28 07:00:00,31.9,30.6,30.38,West,260,0.0,0.0,95,0.00,-RA,,0.07,WeatherDisplay:10.37,2013-01-28 12:00:00,
2013-01-28 07:05:00,32.1,30.8,30.38,West,259,0.0,0.0,95,0.00,OVC,,0.07,WeatherDisplay:10.37,2013-01-28 12:05:00,
2013-01-28 07:10:00,32.1,30.8,30.38,West,260,0.0,0.0,95,0.00,OVC,,0.07,WeatherDisplay:10.37,2013-01-28 12:10:00,
2013-01-28 07:16:00,32.3,31.0,30.38,West,260,0.0,0.0,95,0.00,OVC,,0.07,WeatherDisplay:10.37,2013-01-28 12:16:00,
2013-01-28 07:21:00,32.2,30.9,30.38,West,260,0.0,0.0,95,0.00,OVC,,0.07,WeatherDisplay:10.37,2013-01-28 12:21:00,
2013-01-28 07:26:00,32.2,30.9,30.38,West,260,0.0,0.0,95,0.00,OVC,,0.07,WeatherDisplay:10.37,2013-01-28 12:26:00,
2013-01-28 07:31:00,32.2,30.9,30.38,West,259,0.0,0.0,95,0.00,OVC,,0.07,WeatherDisplay:10.37,2013-01-28 12:31:00,
2013-01-28 07:36:00,32.2,30.9,30.38,West,259,0.0,0.0,95,0.00,OVC,,0.07,WeatherDisplay:10.37,2013-01-28 12:36:00,
2013-01-28 07:41:00,32.1,30.8,30.38,West,260,0.0,0.0,95,0.00,OVC,,0.07,WeatherDisplay:10.37,2013-01-28 12:41:00,
2013-01-28 07:47:00,32.0,30.7,30.39,West,260,0.0,0.0,95,0.00,OVC,,0.07,WeatherDisplay:10.37,2013-01-28 12:47:00,
2013-01-28 07:52:00,32.0,30.7,30.38,West,259,0.0,0.0,95,0.00,OVC,,0.07,WeatherDisplay:10.37,2013-01-28 12:52:00,
2013-01-28 07:57:00,32.1,30.8,30.38,SW,232,0.0,1.1,95,0.00,OVC,,0.07,WeatherDisplay:10.37,2013-01-28 12:57:00,
2013-01-28 08:02:00,32.1,30.8,30.38,SW,232,0.0,0.0,95,0.00,OVC,,0.07,WeatherDisplay:10.37,2013-01-28 13:02:00,
2013-01-28 08:07:00,32.1,30.8,30.38,SW,232,0.0,0.0,95,0.00,OVC,,0.07,WeatherDisplay:10.37,2013-01-28 13:07:00,
2013-01-28 08:12:00,32.1,30.8,30.37,SW,233,0.0,1.1,95,0.00,OVC,,0.07,WeatherDisplay:10.37,2013-01-28 13:12:00,
2013-01-28 08:17:00,32.1,31.1,30.37,SSE,159,0.0,0.0,96,0.00,OVC,,0.07,WeatherDisplay:10.37,2013-01-28 13:17:00,
2013-01-28 08:22:00,32.1,31.1,30.37,SSE,159,0.0,0.0,96,0.00,OVC,,0.07,WeatherDisplay:10.37,2013-01-28 13:22:00,
2013-01-28 08:27:00,32.2,31.2,30.37,SSE,159,0.0,0.0,96,0.00,OVC,,0.07,WeatherDisplay:10.37,2013-01-28 13:27:00,
2013-01-28 08:32:00,32.2,31.2,30.38,SSE,159,0.0,0.0,96,0.00,OVC,,0.07,WeatherDisplay:10.37,2013-01-28 13:32:00,
2013-01-28 08:37:00,32.3,31.3,30.38,WSW,250,0.0,0.0,96,0.00,OVC,,0.07,WeatherDisplay:10.37,2013-01-28 13:37:00,
2013-01-28 08:42:00,32.3,31.3,30.38,WSW,250,0.0,0.0,96,0.00,OVC,,0.07,WeatherDisplay:10.37,2013-01-28 13:42:00,
2013-01-28 08:47:00,32.3,31.3,30.37,SE,125,0.4,1.1,96,0.00,OVC,,0.07,WeatherDisplay:10.37,2013-01-28 13:47:00,
2013-01-28 08:52:00,32.4,31.4,30.37,SW,232,0.0,1.1,96,0.00,OVC,,0.07,WeatherDisplay:10.37,2013-01-28 13:52:00,
2013-01-28 08:57:00,32.5,31.5,30.37,West,278,0.0,0.0,96,0.00,OVC,,0.07,WeatherDisplay:10.37,2013-01-28 13:57:00,
2013-01-28 09:02:00,32.7,31.7,30.36,West,278,0.0,0.0,96,0.00,OVC,,0.07,WeatherDisplay:10.37,2013-01-28 14:02:00,
2013-01-28 09:07:00,32.8,31.8,30.36,West,278,0.0,1.1,96,0.00,OVC,,0.07,WeatherDisplay:10.37,2013-01-28 14:07:00,
2013-01-28 09:12:00,32.8,31.8,30.36,SW,228,0.5,1.1,96,0.00,OVC,,0.07,WeatherDisplay:10.37,2013-01-28 14:12:00,
2013-01-28 09:17:00,32.9,31.9,30.36,WSW,245,0.0,2.3,96,0.00,OVC,,0.07,WeatherDisplay:10.37,2013-01-28 14:17:00,
2013-01-28 09:22:00,33.0,32.0,30.36,West,270,0.5,2.3,96,0.00,OVC,,0.07,WeatherDisplay:10.37,2013-01-28 14:22:00,
2013-01-28 09:27:00,33.1,32.1,30.36,WNW,298,0.1,1.1,96,0.00,OVC,,0.07,WeatherDisplay:10.37,2013-01-28 14:27:00,
2013-01-28 09:32:00,33.3,32.3,30.35,SW,225,0.0,1.1,96,0.00,OVC,,0.07,WeatherDisplay:10.37,2013-01-28 14:32:00,
2013-01-28 09:37:00,33.6,32.6,30.35,SE,131,0.1,1.1,96,0.00,OVC,,0.07,WeatherDisplay:10.37,2013-01-28 14:37:00,
2013-01-28 09:42:00,33.8,32.8,30.35,SSW,208,0.0,0.0,96,0.00,OVC,,0.07,WeatherDisplay:10.37,2013-01-28 14:42:00,
2013-01-28 09:48:00,33.9,32.9,30.35,East,82,1.0,2.3,96,0.01,RA,,0.08,WeatherDisplay:10.37,2013-01-28 14:48:00,
2013-01-28 09:53:00,34.1,33.1,30.35,SSW,204,0.2,1.1,96,0.01,RA,,0.08,WeatherDisplay:10.37,2013-01-28 14:53:00,
2013-01-28 09:58:00,34.3,33.3,30.35,ESE,103,0.1,1.1,96,0.01,RA,,0.08,WeatherDisplay:10.37,2013-01-28 14:58:00,
2013-01-28 10:03:00,34.3,33.3,30.35,SSW,210,0.0,1.1,96,0.01,RA,,0.08,WeatherDisplay:10.37,2013-01-28 15:03:00,
2013-01-28 10:08:00,34.5,33.5,30.35,ESE,115,0.0,1.1,96,0.02,RA,,0.09,WeatherDisplay:10.37,2013-01-28 15:08:00,
2013-01-28 10:13:00,34.7,33.7,30.35,SSE,159,0.1,1.1,96,0.02,RA,,0.09,WeatherDisplay:10.37,2013-01-28 15:13:00,
2013-01-28 10:18:00,34.9,33.9,30.35,South,191,0.0,1.1,96,0.02,RA,,0.09,WeatherDisplay:10.37,2013-01-28 15:18:00,
2013-01-28 10:23:00,35.1,34.1,30.34,East,80,0.0,3.5,96,0.02,RA,,0.09,WeatherDisplay:10.37,2013-01-28 15:23:00,
2013-01-28 10:28:00,35.3,34.3,30.35,ESE,115,0.0,1.1,96,0.02,RA,,0.09,WeatherDisplay:10.37,2013-01-28 15:28:00,
2013-01-28 10:33:00,35.5,34.5,30.35,West,267,0.2,2.3,96,0.02,RA,,0.09,WeatherDisplay:10.37,2013-01-28 15:33:00,
2013-01-28 10:38:00,36.0,35.0,30.34,SSW,193,0.2,2.0,96,0.02,BKN,,0.09,WeatherDisplay:10.37,2013-01-28 15:38:00,
2013-01-28 10:43:00,36.3,35.3,30.34,NW,304,1.0,2.3,96,0.02,BKN,,0.09,WeatherDisplay:10.37,2013-01-28 15:43:00,
2013-01-28 10:48:00,36.6,35.3,30.34,South,173,0.8,2.3,95,0.01,BKN,,0.09,WeatherDisplay:10.37,2013-01-28 15:48:00,
2013-01-28 10:53:00,36.7,35.4,30.34,SSW,204,0.7,2.3,95,0.01,BKN,,0.09,WeatherDisplay:10.37,2013-01-28 15:53:00,
2013-01-28 10:58:00,36.7,35.1,30.34,SSW,203,0.3,3.5,94,0.01,BKN,,0.09,WeatherDisplay:10.37,2013-01-28 15:58:00,
2013-01-28 11:03:00,36.7,35.1,30.34,ESE,107,0.1,2.3,94,0.01,SCT,,0.09,WeatherDisplay:10.37,2013-01-28 16:03:00,
2013-01-28 11:09:00,36.9,35.3,30.33,WSW,245,0.0,0.0,94,0.00,SCT,,0.09,WeatherDisplay:10.37,2013-01-28 16:09:00,
2013-01-28 11:14:00,37.1,35.5,30.33,SW,225,0.1,1.1,94,0.00,SCT,,0.09,WeatherDisplay:10.37,2013-01-28 16:14:00,
2013-01-28 11:19:00,37.5,35.9,30.33,WSW,243,1.3,2.3,94,0.00,FEW,,0.09,WeatherDisplay:10.37,2013-01-28 16:19:00,
2013-01-28 11:24:00,37.5,35.7,30.33,SSE,166,0.5,3.5,93,0.00,FEW,,0.09,WeatherDisplay:10.37,2013-01-28 16:24:00,
2013-01-28 11:29:00,37.9,36.6,30.32,SSE,153,0.0,0.0,95,0.00,FEW,,0.09,WeatherDisplay:10.37,2013-01-28 16:29:00,
2013-01-28 11:34:00,38.3,36.7,30.32,SE,136,0.1,1.1,94,0.00,FEW,,0.09,WeatherDisplay:10.37,2013-01-28 16:34:00,
2013-01-28 11:39:00,38.7,37.1,30.32,SW,228,0.0,1.1,94,0.00,FEW,,0.09,WeatherDisplay:10.37,2013-01-28 16:39:00,
2013-01-28 11:44:00,39.3,37.7,30.31,SSW,210,0.0,1.1,94,0.00,FEW,,0.09,WeatherDisplay:10.37,2013-01-28 16:44:00,
2013-01-28 11:49:00,39.8,37.7,30.31,WNW,287,0.9,3.5,92,0.00,FEW,,0.09,WeatherDisplay:10.37,2013-01-28 16:49:00,
2013-01-28 11:54:00,39.9,37.2,30.30,WSW,243,0.3,2.3,90,0.00,FEW,,0.09,WeatherDisplay:10.37,2013-01-28 16:54:00,
2013-01-28 11:59:00,40.2,37.8,30.30,SW,218,0.2,1.1,91,0.00,FEW,,0.09,WeatherDisplay:10.37,2013-01-28 16:59:00,
2013-01-28 12:04:00,40.6,38.2,30.30,SW,219,0.3,2.3,91,0.00,FEW,,0.09,WeatherDisplay:10.37,2013-01-28 17:04:00,
2013-01-28 12:09:00,40.8,38.1,30.29,SW,235,0.1,1.1,90,0.00,SCT,,0.09,WeatherDisplay:10.37,2013-01-28 17:09:00,
2013-01-28 12:14:00,40.9,38.5,30.28,SE,129,0.2,1.1,91,0.00,SCT,,0.09,WeatherDisplay:10.37,2013-01-28 17:14:00,
2013-01-28 12:19:00,41.4,39.0,30.28,SE,133,0.0,1.1,91,0.00,SCT,,0.09,WeatherDisplay:10.37,2013-01-28 17:19:00,
2013-01-28 12:24:00,41.9,39.5,30.28,SSW,212,0.0,1.1,91,0.00,SCT,,0.09,WeatherDisplay:10.37,2013-01-28 17:24:00,
2013-01-28 12:29:00,42.0,39.3,30.27,WSW,250,0.0,0.0,90,0.00,SCT,,0.09,WeatherDisplay:10.37,2013-01-28 17:29:00,
2013-01-28 12:34:00,42.3,39.6,30.27,WSW,248,0.0,1.1,90,0.00,SCT,,0.09,WeatherDisplay:10.37,2013-01-28 17:34:00,
2013-01-28 12:39:00,42.4,39.7,30.27,SSW,212,0.0,0.0,90,0.00,SCT,,0.09,WeatherDisplay:10.37,2013-01-28 17:39:00,
2013-01-28 12:44:00,42.8,40.1,30.26,SSW,212,0.0,0.0,90,0.00,SCT,,0.09,WeatherDisplay:10.37,2013-01-28 17:44:00,
2013-01-28 12:49:00,43.3,40.6,30.26,East,94,0.6,1.1,90,0.00,SCT,,0.09,WeatherDisplay:10.37,2013-01-28 17:49:00,
2013-01-28 12:54:00,43.9,40.6,30.26,ESE,117,0.0,0.0,88,0.00,SCT,,0.09,WeatherDisplay:10.37,2013-01-28 17:54:00,
2013-01-28 12:59:00,44.6,41.3,30.25,NE,48,0.3,2.0,88,0.00,SCT,,0.09,WeatherDisplay:10.37,2013-01-28 17:59:00,
2013-01-28 13:04:00,45.2,41.6,30.25,NNE,23,0.4,1.1,87,0.00,SCT,,0.09,WeatherDisplay:10.37,2013-01-28 18:04:00,
2013-01-28 13:09:00,46.0,42.0,30.24,East,87,0.4,2.3,86,0.00,CLR,,0.09,WeatherDisplay:10.37,2013-01-28 18:09:00,
2013-01-28 13:14:00,46.6,42.3,30.24,NNE,15,0.3,1.1,85,0.00,CLR,,0.09,WeatherDisplay:10.37,2013-01-28 18:14:00,
2013-01-28 13:19:00,47.3,43.3,30.24,NNE,12,0.0,1.1,86,0.00,CLR,,0.09,WeatherDisplay:10.37,2013-01-28 18:19:00,
2013-01-28 13:24:00,48.1,43.2,30.24,East,89,0.1,1.1,83,0.00,CLR,,0.09,WeatherDisplay:10.37,2013-01-28 18:24:00,
2013-01-28 13:29:00,48.1,42.2,30.23,East,91,0.8,2.3,80,0.00,CLR,,0.09,WeatherDisplay:10.37,2013-01-28 18:29:00,
2013-01-28 13:34:00,48.2,42.3,30.23,East,80,1.6,2.3,80,0.00,CLR,,0.09,WeatherDisplay:10.37,2013-01-28 18:34:00,
2013-01-28 13:39:00,48.4,43.2,30.22,NNE,25,0.5,1.1,82,0.00,CLR,,0.09,WeatherDisplay:10.37,2013-01-28 18:39:00,
2013-01-28 13:44:00,48.8,42.9,30.22,NE,43,1.2,2.3,80,0.00,CLR,,0.09,WeatherDisplay:10.37,2013-01-28 18:44:00,
2013-01-28 13:49:00,49.2,43.6,30.22,ENE,72,0.0,2.3,81,0.00,CLR,,0.09,WeatherDisplay:10.37,2013-01-28 18:49:00,
2013-01-28 13:54:00,50.3,43.7,30.22,NW,307,1.1,2.3,78,0.00,CLR,,0.09,WeatherDisplay:10.37,2013-01-28 18:54:00,
2013-01-28 13:59:00,50.9,44.6,30.21,NW,319,0.0,1.1,79,0.00,CLR,,0.09,WeatherDisplay:10.37,2013-01-28 18:59:00,
2013-01-28 14:04:00,51.0,44.4,30.21,North,355,0.6,2.0,78,0.00,CLR,,0.09,WeatherDisplay:10.37,2013-01-28 19:04:00,
2013-01-28 14:09:00,51.7,44.4,30.21,NNE,21,0.8,2.3,76,0.00,CLR,,0.09,WeatherDisplay:10.37,2013-01-28 19:09:00,
2013-01-28 14:14:00,52.4,44.4,30.21,WNW,293,1.7,2.3,74,0.00,CLR,,0.09,WeatherDisplay:10.37,2013-01-28 19:14:00,
2013-01-28 14:19:00,52.4,44.7,30.20,WNW,296,1.4,2.3,75,0.00,CLR,,0.09,WeatherDisplay:10.37,2013-01-28 19:19:00,
2013-01-28 14:24:00,53.0,45.3,30.20,WNW,303,0.0,1.1,75,0.00,CLR,,0.09,WeatherDisplay:10.37,2013-01-28 19:24:00,
2013-01-28 14:29:00,53.6,45.5,30.20,SW,223,0.0,1.1,74,0.00,CLR,,0.09,WeatherDisplay:10.37,2013-01-28 19:29:00,
2013-01-28 14:34:00,53.9,45.4,30.19,NNW,330,0.0,1.1,73,0.00,CLR,,0.09,WeatherDisplay:10.37,2013-01-28 19:34:00,
2013-01-28 14:39:00,53.9,45.4,30.19,NNW,345,0.1,1.1,73,0.00,CLR,,0.09,WeatherDisplay:10.37,2013-01-28 19:39:00,
2013-01-28 14:44:00,54.6,45.4,30.19,NW,318,1.8,2.3,71,0.00,CLR,,0.09,WeatherDisplay:10.37,2013-01-28 19:44:00,
2013-01-28 14:49:00,55.2,46.0,30.19,WNW,297,0.9,3.0,71,0.00,CLR,,0.09,WeatherDisplay:10.37,2013-01-28 19:49:00,
2013-01-28 14:54:00,55.4,45.8,30.19,West,266,1.2,2.3,70,0.00,CLR,,0.09,WeatherDisplay:10.37,2013-01-28 19:54:00,
2013-01-28 14:59:00,55.9,45.1,30.19,East,86,0.0,2.3,67,0.00,CLR,,0.09,WeatherDisplay:10.37,2013-01-28 19:59:00,
2013-01-28 15:04:00,56.7,46.3,30.18,SW,228,0.2,1.1,68,0.00,CLR,,0.09,WeatherDisplay:10.37,2013-01-28 20:04:00,
2013-01-28 15:09:00,56.9,45.7,30.18,NW,319,0.6,2.3,66,0.00,CLR,,0.09,WeatherDisplay:10.37,2013-01-28 20:09:00,
2013-01-28 15:14:00,57.1,45.8,30.18,NNE,15,0.5,1.1,66,0.00,CLR,,0.09,WeatherDisplay:10.37,2013-01-28 20:14:00,
2013-01-28 15:19:00,57.7,45.6,30.18,NW,315,1.0,2.3,64,0.00,BKN,,0.09,WeatherDisplay:10.37,2013-01-28 20:19:00,
2013-01-28 15:24:00,58.3,45.8,30.17,SW,226,1.9,3.5,63,0.00,BKN,,0.09,WeatherDisplay:10.37,2013-01-28 20:24:00,
2013-01-28 15:29:00,58.4,45.4,30.17,WNW,285,1.1,3.5,62,0.00,BKN,,0.09,WeatherDisplay:10.37,2013-01-28 20:29:00,
2013-01-28 15:34:00,58.3,45.3,30.17,SE,129,1.7,4.6,62,0.00,BKN,,0.09,WeatherDisplay:10.37,2013-01-28 20:34:00,
2013-01-28 15:39:00,57.8,44.9,30.17,NW,309,0.4,3.5,62,0.00,BKN,,0.09,WeatherDisplay:10.37,2013-01-28 20:39:00,
2013-01-28 15:44:00,58.2,45.7,30.17,NNW,340,2.0,2.3,63,0.00,BKN,,0.09,WeatherDisplay:10.37,2013-01-28 20:44:00,
2013-01-28 15:49:00,58.2,44.8,30.17,WNW,300,0.0,2.3,61,0.00,BKN,,0.09,WeatherDisplay:10.37,2013-01-28 20:49:00,
2013-01-28 15:54:00,58.4,45.0,30.17,SW,235,1.1,3.5,61,0.00,BKN,,0.09,WeatherDisplay:10.37,2013-01-28 20:54:00,
2013-01-28 15:59:00,58.0,44.6,30.17,NNW,335,0.1,3.5,61,0.00,BKN,,0.09,WeatherDisplay:10.37,2013-01-28 20:59:00,
2013-01-28 16:04:00,58.0,44.6,30.17,WNW,297,1.8,2.3,61,0.00,BKN,,0.09,WeatherDisplay:10.37,2013-01-28 21:04:00,
2013-01-28 16:09:00,58.5,45.1,30.17,WSW,248,0.0,0.0,61,0.00,FEW,,0.09,WeatherDisplay:10.37,2013-01-28 21:09:00,
2013-01-28 16:14:00,58.7,44.8,30.17,NW,316,1.0,2.3,60,0.00,FEW,,0.09,WeatherDisplay:10.37,2013-01-28 21:14:00,
2013-01-28 16:19:00,58.4,45.4,30.18,WNW,293,0.1,1.1,62,0.00,FEW,,0.09,WeatherDisplay:10.37,2013-01-28 21:19:00,
2013-01-28 16:24:00,57.9,45.0,30.18,NW,313,1.0,1.1,62,0.00,FEW,,0.09,WeatherDisplay:10.37,2013-01-28 21:24:00,
2013-01-28 16:29:00,57.3,44.4,30.18,West,262,1.6,2.3,62,0.00,FEW,,0.09,WeatherDisplay:10.37,2013-01-28 21:29:00,
2013-01-28 16:34:00,57.0,44.1,30.18,WSW,248,0.2,1.1,62,0.00,FEW,,0.09,WeatherDisplay:10.37,2013-01-28 21:34:00,
2013-01-28 16:40:00,57.0,44.5,30.18,WSW,248,0.0,0.0,63,0.00,FEW,,0.09,WeatherDisplay:10.37,2013-01-28 21:40:00,
2013-01-28 16:45:00,56.6,44.1,30.17,WSW,248,0.0,0.0,63,0.00,FEW,,0.09,WeatherDisplay:10.37,2013-01-28 21:45:00,
2013-01-28 16:50:00,56.7,44.2,30.17,NW,318,0.2,1.1,63,0.00,FEW,,0.09,WeatherDisplay:10.37,2013-01-28 21:50:00,
2013-01-28 16:55:00,56.3,43.9,30.17,North,9,0.0,1.1,63,0.00,FEW,,0.09,WeatherDisplay:10.37,2013-01-28 21:55:00,
2013-01-28 17:00:00,56.5,44.5,30.17,North,9,0.0,1.1,64,0.00,FEW,,0.09,WeatherDisplay:10.37,2013-01-28 22:00:00,
2013-01-28 17:05:00,56.4,44.4,30.17,WNW,302,0.0,0.0,64,0.00,FEW,,0.09,WeatherDisplay:10.37,2013-01-28 22:05:00,
2013-01-28 17:10:00,55.9,43.9,30.18,WNW,302,0.3,1.1,64,0.00,FEW,,0.09,WeatherDisplay:10.37,2013-01-28 22:10:00,
2013-01-28 17:15:00,55.1,43.9,30.18,WNW,302,0.0,0.0,66,0.00,FEW,,0.09,WeatherDisplay:10.37,2013-01-28 22:15:00,
2013-01-28 17:20:00,54.7,44.0,30.17,WNW,302,0.0,0.0,67,0.00,FEW,,0.09,WeatherDisplay:10.37,2013-01-28 22:20:00,
2013-01-28 17:25:00,54.0,43.3,30.18,WNW,302,0.0,0.0,67,0.00,FEW,,0.09,WeatherDisplay:10.37,2013-01-28 22:25:00,
2013-01-28 17:30:00,53.4,43.1,30.18,WNW,302,0.0,0.0,68,0.00,FEW,,0.09,WeatherDisplay:10.37,2013-01-28 22:30:00,
2013-01-28 17:35:00,52.8,42.9,30.18,WNW,302,0.0,0.0,69,0.00,FEW,,0.09,WeatherDisplay:10.37,2013-01-28 22:35:00,
2013-01-28 17:40:00,52.3,42.8,30.18,East,90,0.2,1.1,70,0.00,FEW,,0.09,WeatherDisplay:10.37,2013-01-28 22:40:00,
2013-01-28 17:45:00,51.8,42.7,30.18,East,98,0.0,0.0,71,0.00,FEW,,0.09,WeatherDisplay:10.37,2013-01-28 22:45:00,
2013-01-28 17:50:00,51.4,42.7,30.18,SSE,147,0.0,1.1,72,0.00,FEW,,0.09,WeatherDisplay:10.37,2013-01-28 22:50:00,
2013-01-28 17:55:00,50.8,42.5,30.18,SSE,164,0.5,1.1,73,0.00,FEW,,0.09,WeatherDisplay:10.37,2013-01-28 22:55:00,
2013-01-28 18:00:00,50.3,42.3,30.18,South,179,0.0,0.0,74,0.00,FEW,,0.09,WeatherDisplay:10.37,2013-01-28 23:00:00,
2013-01-28 18:05:00,49.7,42.1,30.18,South,179,0.0,0.0,75,0.00,FEW,,0.09,WeatherDisplay:10.37,2013-01-28 23:05:00,
2013-01-28 18:10:00,49.1,41.9,30.18,SE,127,0.2,1.1,76,0.00,FEW,,0.09,WeatherDisplay:10.37,2013-01-28 23:10:00,
2013-01-28 18:15:00,48.3,41.4,30.18,SSE,150,0.0,0.0,77,0.00,FEW,,0.09,WeatherDisplay:10.37,2013-01-28 23:15:00,
2013-01-28 18:20:00,47.7,41.2,30.18,SW,225,0.0,1.1,78,0.00,FEW,,0.09,WeatherDisplay:10.37,2013-01-28 23:20:00,
2013-01-28 18:25:00,47.2,41.0,30.18,SW,224,0.0,0.0,79,0.00,FEW,,0.09,WeatherDisplay:10.37,2013-01-28 23:25:00,
2013-01-28 18:30:00,47.0,41.1,30.18,WSW,242,0.0,1.1,80,0.00,FEW,,0.09,WeatherDisplay:10.37,2013-01-28 23:30:00,
2013-01-28 18:35:00,46.7,40.9,30.18,WSW,248,0.5,2.3,80,0.00,FEW,,0.09,WeatherDisplay:10.37,2013-01-28 23:35:00,
2013-01-28 18:40:00,46.2,40.7,30.18,WSW,248,0.0,1.1,81,0.00,FEW,,0.09,WeatherDisplay:10.37,2013-01-28 23:40:00,
2013-01-28 18:45:00,46.0,40.5,30.18,West,278,0.0,1.1,81,0.00,FEW,,0.09,WeatherDisplay:10.37,2013-01-28 23:45:00,
2013-01-28 18:50:00,45.8,40.6,30.18,NW,326,0.0,0.0,82,0.00,FEW,,0.09,WeatherDisplay:10.37,2013-01-28 23:50:00,
2013-01-28 18:55:00,45.7,40.5,30.18,NW,326,0.0,0.0,82,0.00,FEW,,0.09,WeatherDisplay:10.37,2013-01-28 23:55:00,
2013-01-28 19:00:00,45.6,40.4,30.19,NW,326,0.0,0.0,82,0.00,FEW,,0.09,WeatherDisplay:10.37,2013-01-29 00:00:00,
2013-01-28 19:05:00,45.6,40.4,30.19,ESE,106,0.0,1.1,82,0.00,FEW,,0.09,WeatherDisplay:10.37,2013-01-29 00:05:00,
2013-01-28 19:10:00,45.3,40.4,30.19,ESE,104,0.1,1.1,83,0.00,FEW,,0.09,WeatherDisplay:10.37,2013-01-29 00:10:00,
2013-01-28 19:15:00,45.1,40.6,30.19,WSW,243,0.0,0.0,84,0.00,FEW,,0.09,WeatherDisplay:10.37,2013-01-29 00:15:00,
2013-01-28 19:20:00,45.0,40.5,30.19,WSW,243,0.0,0.0,84,0.00,BKN,,0.09,WeatherDisplay:10.37,2013-01-29 00:20:00,
2013-01-28 19:25:00,44.8,40.3,30.19,SE,128,0.0,2.3,84,0.00,BKN,,0.09,WeatherDisplay:10.37,2013-01-29 00:25:00,
2013-01-28 19:30:00,44.7,40.2,30.19,SE,127,0.0,1.1,84,0.00,BKN,,0.09,WeatherDisplay:10.37,2013-01-29 00:30:00,
2013-01-28 19:35:00,44.3,39.8,30.19,West,278,0.4,2.3,84,0.00,BKN,,0.09,WeatherDisplay:10.37,2013-01-29 00:35:00,
2013-01-28 19:40:00,44.3,40.1,30.19,West,278,0.0,0.0,85,0.00,BKN,,0.09,WeatherDisplay:10.37,2013-01-29 00:40:00,
2013-01-28 19:45:00,44.6,40.7,30.19,West,278,0.0,0.0,86,0.00,BKN,,0.09,WeatherDisplay:10.37,2013-01-29 00:45:00,
2013-01-28 19:50:00,44.4,40.2,30.18,NE,55,0.7,2.3,85,0.00,BKN,,0.09,WeatherDisplay:10.37,2013-01-29 00:50:00,
2013-01-28 19:55:00,44.3,40.4,30.19,SW,218,1.1,3.5,86,0.00,BKN,,0.09,WeatherDisplay:10.37,2013-01-29 00:55:00,
2013-01-28 20:00:00,44.6,40.7,30.19,West,274,1.2,2.3,86,0.00,BKN,,0.09,WeatherDisplay:10.37,2013-01-29 01:00:00,
2013-01-28 20:05:00,44.6,40.7,30.19,ESE,103,1.0,3.5,86,0.00,BKN,,0.09,WeatherDisplay:10.37,2013-01-29 01:05:00,
2013-01-28 20:10:00,44.5,40.9,30.19,West,277,0.6,2.3,87,0.00,BKN,,0.09,WeatherDisplay:10.37,2013-01-29 01:10:00,
2013-01-28 20:15:00,44.6,41.0,30.18,WSW,250,1.2,4.6,87,0.00,BKN,,0.09,WeatherDisplay:10.37,2013-01-29 01:15:00,
2013-01-28 20:20:00,44.6,41.0,30.18,ENE,78,0.5,1.1,87,0.00,BKN,,0.09,WeatherDisplay:10.37,2013-01-29 01:20:00,
2013-01-28 20:25:00,44.5,40.6,30.18,SSW,197,0.5,2.3,86,0.00,BKN,,0.09,WeatherDisplay:10.37,2013-01-29 01:25:00,
2013-01-28 20:30:00,44.4,40.8,30.18,SSW,207,0.1,2.3,87,0.00,BKN,,0.09,WeatherDisplay:10.37,2013-01-29 01:30:00,
2013-01-28 20:35:00,44.3,40.7,30.18,SE,146,0.4,1.1,87,0.00,BKN,,0.09,WeatherDisplay:10.37,2013-01-29 01:35:00,
2013-01-28 20:40:00,44.0,40.4,30.18,East,91,0.5,2.3,87,0.00,BKN,,0.09,WeatherDisplay:10.37,2013-01-29 01:40:00,
2013-01-28 20:45:00,44.0,40.7,30.17,East,94,0.6,1.1,88,0.00,BKN,,0.09,WeatherDisplay:10.37,2013-01-29 01:45:00,
2013-01-28 20:50:00,44.1,40.8,30.17,ESE,110,0.0,2.3,88,0.00,BKN,,0.09,WeatherDisplay:10.37,2013-01-29 01:50:00,
2013-01-28 20:55:00,44.6,41.3,30.17,NE,41,0.2,2.0,88,0.00,BKN,,0.09,WeatherDisplay:10.37,2013-01-29 01:55:00,
2013-01-28 21:00:00,44.7,41.1,30.17,South,169,0.0,2.3,87,0.00,BKN,,0.09,WeatherDisplay:10.37,2013-01-29 02:00:00,
2013-01-28 21:05:00,44.6,41.3,30.17,ESE,113,0.8,1.1,88,0.00,BKN,,0.09,WeatherDisplay:10.37,2013-01-29 02:05:00,
2013-01-28 21:10:00,44.9,41.6,30.17,WSW,240,0.8,3.5,88,0.00,BKN,,0.09,WeatherDisplay:10.37,2013-01-29 02:10:00,
2013-01-28 21:15:00,45.1,41.5,30.17,SE,128,0.0,3.5,87,0.00,BKN,,0.09,WeatherDisplay:10.37,2013-01-29 02:15:00,
2013-01-28 21:20:00,45.3,41.7,30.17,WSW,250,0.7,5.0,87,0.00,BKN,,0.09,WeatherDisplay:10.37,2013-01-29 02:20:00,
2013-01-28 21:25:00,45.9,42.5,30.17,SSW,203,0.7,2.3,88,0.00,BKN,,0.09,WeatherDisplay:10.37,2013-01-29 02:25:00,
2013-01-28 21:30:00,49.8,45.8,30.17,West,266,3.2,6.9,86,0.00,BKN,,0.09,WeatherDisplay:10.37,2013-01-29 02:30:00,
2013-01-28 21:35:00,52.2,45.2,30.17,ESE,117,0.7,2.3,77,0.00,BKN,,0.09,WeatherDisplay:10.37,2013-01-29 02:35:00,
2013-01-28 21:40:00,52.1,45.1,30.17,ENE,75,0.3,1.1,77,0.00,BKN,,0.09,WeatherDisplay:10.37,2013-01-29 02:40:00,
2013-01-28 21:45:00,52.5,45.2,30.17,NE,41,1.2,2.3,76,0.00,BKN,,0.09,WeatherDisplay:10.37,2013-01-29 02:45:00,
2013-01-28 21:50:00,53.0,45.6,30.17,West,277,1.2,4.6,76,0.00,BKN,,0.09,WeatherDisplay:10.37,2013-01-29 02:50:00,
2013-01-28 21:55:00,53.4,45.7,30.17,North,8,1.9,3.5,75,0.00,BKN,,0.09,WeatherDisplay:10.37,2013-01-29 02:55:00,
2013-01-28 22:00:00,53.1,45.0,30.17,ESE,105,1.6,2.3,74,0.00,BKN,,0.09,WeatherDisplay:10.37,2013-01-29 03:00:00,
2013-01-28 22:05:00,54.5,46.4,30.17,SW,228,2.9,4.6,74,0.00,BKN,,0.09,WeatherDisplay:10.37,2013-01-29 03:05:00,
2013-01-28 22:10:00,55.8,46.9,30.17,South,189,4.0,9.2,72,0.00,BKN,,0.09,WeatherDisplay:10.37,2013-01-29 03:10:00,
2013-01-28 22:15:00,57.0,47.3,30.16,SSW,210,6.5,10.4,70,0.00,BKN,,0.09,WeatherDisplay:10.37,2013-01-29 03:15:00,
2013-01-28 22:20:00,57.6,47.1,30.16,West,276,1.4,4.0,68,0.00,BKN,,0.09,WeatherDisplay:10.37,2013-01-29 03:20:00,
2013-01-28 22:25:00,58.2,47.3,30.16,WNW,294,1.8,5.8,67,0.00,BKN,,0.09,WeatherDisplay:10.37,2013-01-29 03:25:00,
2013-01-28 22:30:00,58.4,47.9,30.16,SW,217,3.2,9.2,68,0.00,BKN,,0.09,WeatherDisplay:10.37,2013-01-29 03:30:00,
2013-01-28 22:35:00,58.5,48.0,30.16,WSW,238,2.7,5.8,68,0.00,BKN,,0.09,WeatherDisplay:10.37,2013-01-29 03:35:00,
2013-01-28 22:40:00,58.6,48.1,30.16,SW,233,2.2,5.0,68,0.00,BKN,,0.09,WeatherDisplay:10.37,2013-01-29 03:40:00,
2013-01-28 22:45:00,58.7,48.2,30.16,West,276,4.4,8.1,68,0.00,BKN,,0.09,WeatherDisplay:10.37,2013-01-29 03:45:00,
2013-01-28 22:50:00,58.9,48.0,30.16,WNW,285,2.9,5.8,67,0.00,BKN,,0.09,WeatherDisplay:10.37,2013-01-29 03:50:00,
2013-01-28 22:55:00,58.8,47.9,30.16,WSW,248,3.2,6.0,67,0.00,BKN,,0.09,WeatherDisplay:10.37,2013-01-29 03:55:00,
2013-01-28 23:00:00,58.8,47.9,30.16,WSW,258,2.5,5.0,67,0.00,BKN,,0.09,WeatherDisplay:10.37,2013-01-29 04:00:00,
2013-01-28 23:05:00,58.8,48.3,30.16,West,264,2.3,8.1,68,0.00,SCT,,0.09,WeatherDisplay:10.37,2013-01-29 04:05:00,
2013-01-28 23:10:00,58.9,48.4,30.16,SW,225,2.4,6.9,68,0.00,SCT,,0.09,WeatherDisplay:10.37,2013-01-29 04:10:00,
2013-01-28 23:15:00,59.0,48.4,30.16,WSW,253,4.3,7.0,68,0.00,SCT,,0.09,WeatherDisplay:10.37,2013-01-29 04:15:00,
2013-01-28 23:20:00,59.0,48.8,30.16,SW,217,4.8,9.2,69,0.00,SCT,,0.09,WeatherDisplay:10.37,2013-01-29 04:20:00,
2013-01-28 23:25:00,58.8,48.6,30.16,WSW,245,5.6,11.5,69,0.00,SCT,,0.09,WeatherDisplay:10.37,2013-01-29 04:25:00,
2013-01-28 23:30:00,58.8,48.6,30.16,WSW,253,3.3,8.1,69,0.00,SCT,,0.09,WeatherDisplay:10.37,2013-01-29 04:30:00,
2013-01-28 23:35:00,58.7,48.6,30.16,WSW,255,3.6,6.0,69,0.00,SCT,,0.09,WeatherDisplay:10.37,2013-01-29 04:35:00,
2013-01-28 23:40:00,58.4,48.3,30.16,West,263,3.0,8.1,69,0.00,SCT,,0.09,WeatherDisplay:10.37,2013-01-29 04:40:00,
2013-01-28 23:45:00,58.5,48.4,30.16,SW,228,4.8,9.2,69,0.00,SCT,,0.09,WeatherDisplay:10.37,2013-01-29 04:45:00,
2013-01-28 23:50:00,58.5,48.4,30.16,SW,224,3.6,5.0,69,0.00,SCT,,0.09,WeatherDisplay:10.37,2013-01-29 04:50:00,
2013-01-28 23:55:00,58.5,48.7,30.16,WSW,253,4.6,8.1,70,0.00,SCT,,0.09,WeatherDisplay:10.37,2013-01-29 04:55:00,